Retour au catalogue

SL-8 R/B

ActifLEO
NORAD 8344·ROCKET BODY·🇷🇺 Russia

Lancé Sep 30, 1975 depuis Plesetsk Cosmodrome

Loading…

Prochains Passages (prochaines 24 heures)

TLE

FraisSource: Space-Track

Époque: Sep 13, 2026, 15:38 UTC

1 08344U 75094B   26256.65204091  .00000142  00000-0  52443-4 0  9991
2 08344  74.0573  21.2300 0021122 158.9984 201.2044 14.40669832671108

Suivez SL-8 R/B en temps réel avec AllMySat

Download on the App Store